Edinburg, TX

11:18 AM CST on February 12, 2016 (GMT -0600)
Edinburg

Weather History for KEBG - December, 2011

Change the Weather History Date:

Sunday, December 18, 2011

  Actual Average (KMFE) Record (KMFE)
Temperature  
Mean Temperature 59 °F 61 °F  
Max Temperature 64 °F 71 °F 89 °F (1990)
Min Temperature 54 °F 51 °F 31 °F (1880)
Degree Days  
Heating Degree Days 6 6  
Month to date heating degree days 91  
Since 1 July heating degree days 151  
Cooling Degree Days 0 3  
Month to date cooling degree days 56  
Year to date cooling degree days 4425  
Growing Degree Days 9 (Base 50)    
Moisture  
Dew Point 54 °F    
Average Humidity 84    
Maximum Humidity 93    
Minimum Humidity 70    
Precipitation  
Precipitation 0.03 in 0.04 in 0.74 in (1956)
Month to date precipitation 0.66  
Year to date precipitation 21.67  
Sea Level Pressure  
Sea Level Pressure 30.24 in    
Wind  
Wind Speed - (North)    
Max Wind Speed -    
Max Gust Speed -    
Visibility 6 miles    
Events Rain    
T = Trace of Precipitation, MM = Missing Value Source: NWS Daily Summary

Daily Weather History Graph

Daily Weather History Graph

Search for Another Location

Airport or City:

Trip Planner

Search our weather history database for the weather conditions in past years. The results will help you decide how hot, cold, wet, or windy it might be!

Date:

Astronomy

Dec. 18, 2011 Rise Set
Actual Time 7:14 AM CST 5:43 PM CST
Civil Twilight 6:49 AM CST 6:09 PM CST
Nautical Twilight 6:20 AM CST 6:37 PM CST
Astronomical Twilight 5:51 AM CST 7:06 PM CST
Moon 12:45 AM CST (12/18) 12:45 PM CST (12/18)
Length of Visible Light 11h 19m
Length of Day
10h 29m
Last Quarter, 42% of the Moon is Illuminated
Dec 18
Last Quarter
Dec 24
New
Jan 1
First Quarter
Jan 9
Full
Jan 16
Last Quarter

Hourly Weather History & Observations

Time (CST) Temp. Dew Point Humidity Pressure Visibility Wind Dir Wind Speed Gust Speed Precip Events Conditions
12:15 AM 54.5 °F 51.6 °F 90% 30.41 in 7.0 mi North - - N/A   Overcast
12:35 AM 54.5 °F 51.4 °F 89% 30.41 in 4.0 mi North - - N/A Rain Light Rain
12:55 AM 54.5 °F 51.4 °F 89% 30.40 in 4.0 mi North - - N/A   Light Drizzle
1:15 AM 54.5 °F 51.8 °F 91% 30.39 in 7.0 mi North - - N/A   Overcast
1:35 AM 54.5 °F 51.8 °F 91% 30.38 in 5.0 mi North - - N/A   Overcast
1:55 AM 54.7 °F 51.8 °F 90% 30.38 in 5.0 mi North - - N/A   Overcast
2:15 AM 54.9 °F 51.8 °F 89% 30.37 in 7.0 mi North - - N/A   Overcast
2:55 AM 55.0 °F 51.4 °F 88% 30.35 in 7.0 mi North - - N/A   Overcast
3:35 AM 55.4 °F 51.1 °F 85% 30.34 in 7.0 mi North - - N/A   Overcast
4:15 AM 55.6 °F 50.9 °F 84% 30.33 in 7.0 mi North - - N/A   Overcast
4:35 AM 55.6 °F 50.5 °F 83% 30.32 in 7.0 mi North - - N/A   Overcast
4:55 AM 55.8 °F 50.5 °F 83% 30.31 in 7.0 mi North - - N/A   Overcast
5:15 AM 55.8 °F 50.0 °F 81% 30.31 in 7.0 mi North - - N/A   Overcast
5:35 AM 55.9 °F 49.8 °F 80% 30.31 in 7.0 mi North - - N/A   Overcast
6:15 AM 56.1 °F 49.8 °F 79% 30.31 in 7.0 mi North - - N/A   Overcast
6:35 AM 56.3 °F 49.5 °F 78% 30.31 in 7.0 mi North - - N/A   Overcast
6:55 AM 56.3 °F 49.5 °F 78% 30.31 in 7.0 mi North - - N/A   Overcast
7:15 AM 56.3 °F 49.6 °F 78% 30.31 in 7.0 mi North - - N/A   Overcast
7:35 AM 56.3 °F 49.8 °F 79% 30.32 in 7.0 mi North - - N/A   Overcast
8:15 AM 56.8 °F 49.8 °F 77% 30.32 in 7.0 mi North - - N/A   Overcast
8:35 AM 57.2 °F 49.8 °F 76% 30.32 in 7.0 mi North - - N/A   Overcast
8:55 AM 57.6 °F 50.2 °F 76% 30.33 in 5.0 mi North - - N/A   Haze
9:15 AM 58.3 °F 50.0 °F 74% 30.33 in 7.0 mi North - - N/A   Overcast
9:35 AM 59.0 °F 50.4 °F 73% 30.33 in 7.0 mi North - - N/A   Overcast
10:15 AM 60.6 °F 50.9 °F 70% 30.32 in 7.0 mi North - - N/A   Overcast
10:35 AM 61.0 °F 51.1 °F 70% 30.31 in 7.0 mi North - - N/A   Overcast
10:55 AM 61.3 °F 51.4 °F 70% 30.31 in 10.0 mi North - - N/A   Overcast
11:15 AM 62.1 °F 52.0 °F 70% 30.30 in 10.0 mi North - - N/A   Overcast
11:35 AM 62.4 °F 52.5 °F 70% 30.29 in 10.0 mi North - - N/A   Overcast
11:55 AM 63.0 °F 53.1 °F 70% 30.28 in 10.0 mi North - - N/A   Overcast
12:15 PM 63.3 °F 53.4 °F 70% 30.27 in 10.0 mi North - - N/A   Overcast
12:35 PM 63.7 °F 54.0 °F 71% 30.25 in 10.0 mi North - - N/A   Overcast
12:55 PM 64.0 °F 54.0 °F 70% 30.23 in 10.0 mi North - - N/A   Overcast
1:15 PM 64.2 °F 54.9 °F 72% 30.22 in 10.0 mi North - - N/A Rain Light Rain
2:35 PM 62.1 °F 57.9 °F 86% 30.18 in 1.8 mi North - - 0.02 in   Heavy Drizzle
3:35 PM 61.9 °F 59.0 °F 90% 30.16 in 2.5 mi North - - N/A   Drizzle
3:55 PM 61.7 °F 59.0 °F 91% 30.15 in 2.0 mi North - - 0.01 in   Light Drizzle
4:15 PM 61.7 °F 59.0 °F 91% 30.15 in 4.0 mi North - - N/A   Overcast
4:35 PM 61.5 °F 59.0 °F 91% 30.15 in 4.0 mi North - - N/A   Overcast
5:15 PM 61.7 °F 59.0 °F 91% 30.14 in 7.0 mi North - - N/A   Overcast
5:35 PM 61.7 °F 59.0 °F 91% 30.14 in 5.0 mi North - - N/A   Overcast
5:55 PM 61.5 °F 59.0 °F 91% 30.14 in 10.0 mi North - - N/A   Overcast
6:15 PM 61.7 °F 59.2 °F 91% 30.14 in 7.0 mi North - - N/A   Overcast
6:35 PM 61.7 °F 59.2 °F 91% 30.13 in 7.0 mi North - - N/A   Overcast
6:55 PM 61.7 °F 59.2 °F 91% 30.13 in 7.0 mi North - - N/A   Overcast
7:15 PM 61.7 °F 59.2 °F 91% 30.14 in 7.0 mi North - - N/A   Overcast
7:35 PM 61.7 °F 59.2 °F 91% 30.14 in 5.0 mi North - - N/A   Overcast
7:55 PM 61.7 °F 59.2 °F 91% 30.14 in 5.0 mi North - - N/A   Overcast
8:15 PM 61.3 °F 59.0 °F 92% 30.13 in 5.0 mi North - - N/A   Overcast
8:35 PM 61.0 °F 58.8 °F 93% 30.12 in 5.0 mi North - - N/A   Overcast
8:55 PM 61.0 °F 58.5 °F 91% 30.12 in 5.0 mi North - - N/A   Overcast
9:15 PM 60.8 °F 58.5 °F 92% 30.12 in 5.0 mi North - - N/A   Overcast
9:35 PM 60.4 °F 58.3 °F 93% 30.12 in 4.0 mi North - - N/A   Overcast
10:15 PM 59.4 °F 57.0 °F 92% 30.12 in 1.5 mi North - - N/A   Overcast
10:35 PM 59.0 °F 56.7 °F 92% 30.12 in 1.2 mi North - - N/A   Overcast
10:55 PM 58.8 °F 56.8 °F 93% 30.11 in 1.0 mi North - - N/A   Overcast
11:15 PM 58.5 °F 56.5 °F 93% 30.10 in 0.8 mi North - - N/A   Overcast
11:35 PM 58.5 °F 56.5 °F 93% 30.09 in 0.8 mi North - - N/A   Overcast
11:55 PM 58.3 °F 56.3 °F 93% 30.07 in 0.8 mi North - - N/A   Overcast